Location: Caltech
(34.1382°N, 118.1253°W)
Time: 21:31:54
(UTC-07:00)

HO-68 - Visible Passes

Search period start: 20 April 2014 00:00
Search period end: 30 April 2014 00:00
Orbit: 1193 x 1204 km, 100.3° (Epoch: 20 April)

Date Brightness Start Highest point End Pass type
(mag) Time Alt. Az. Time Alt. Az. Time Alt. Az.
20 Apr ? 21:27:27 29° SSE 21:31:27 84° WSW 21:38:38 10° NNW visible
20 Apr ? 23:18:14 10° WSW 23:19:57 11° W 23:21:41 10° WNW visible
21 Apr ? 21:10:13 26° SSE 21:14:35 75° ENE 21:21:44 10° N visible
21 Apr ? 22:59:40 12° WSW 23:02:50 16° W 23:07:02 10° NW visible
22 Apr ? 20:52:59 21° SE 20:57:46 56° ENE 21:04:43 10° N visible
22 Apr ? 22:42:26 17° SW 22:45:45 23° W 22:51:10 10° NW visible
23 Apr ? 20:35:45 16° SE 20:41:00 43° ENE 20:47:37 10° N visible
23 Apr ? 22:25:12 21° SW 22:28:43 31° W 22:34:55 10° NW visible
24 Apr ? 20:18:31 12° ESE 20:24:16 32° ENE 20:30:24 10° N visible
24 Apr ? 22:07:58 25° SSW 22:11:43 42° W 22:18:25 10° NNW visible
25 Apr ? 20:02:08 10° ESE 20:07:35 24° ENE 20:13:03 10° NNE visible
25 Apr ? 21:50:44 27° S 21:54:45 57° WSW 22:01:47 10° NNW visible
26 Apr ? 21:33:30 26° S 21:37:50 76° WSW 21:45:01 10° NNW visible
27 Apr ? 21:16:16 24° SSE 21:20:58 83° ENE 21:28:08 10° NNW visible
27 Apr ? 23:05:51 10° WSW 23:09:18 14° W 23:12:47 10° WNW visible
28 Apr ? 20:59:02 20° SE 21:04:07 63° ENE 21:11:10 10° N visible
28 Apr ? 22:48:29 14° SW 22:52:12 20° W 22:57:13 10° NW visible
29 Apr ? 20:41:49 16° SE 20:47:20 48° ENE 20:54:07 10° N visible
29 Apr ? 22:31:15 18° SW 22:35:09 28° W 22:41:05 10° NW visible
